Location: Bois de la Silve
(44.4667°N, 6.7833°E)
Time: 08:51:52
(UTC+00:00)

Meteor 1-18 Rocket - Pass Details

Date: 14 July 2020
Orbit: 836 x 909 km, 81.2° (Epoch: 14 August)

Event Time Altitude Azimuth Distance (km) Brightness Sun altitude
Rises 01:02:39 0° 346° (NNW) 3,515 8.3 -21.2°
Reaches altitude 10° 01:05:09 10° 344° (NNW) 2,561 7.4 -21.0°
Maximum altitude 01:10:54 64° 264° (W) 970 4.3 -20.6°
Enters shadow 01:12:52 40° 201° (SSW) 1,263 4.6 -20.5°
